Location: Feigenhofen
(48.4939°N, 10.7793°E)
Time: 02:43:38
(UTC+00:00)

Daily predictions for brighter satellites

Satellite Brightness Start Highest point End
(mag) Time Altitude Azimuth Time Altitude Azimuth Time Altitude Azimuth
ADEOS II 4.4 00:01:06 10° NE 00:03:54 14° E 00:06:43 10° ESE
Cosmos 1553 Rocket 4.3 00:03:21 30° SW 00:06:15 56° WNW 00:12:21 10° N
NOSS 2-2 (D) 4.2 00:01:36 10° NW 00:06:36 73° SW 00:11:37 19° SSE
Cosmos 1461 3.8 00:03:02 10° NW 00:06:31 32° WSW 00:06:31 32° WSW
Gblst 52 Del rocket 4.5 00:01:40 10° W 00:07:48 71° N 00:13:22 10° ENE
Cosmos 1867 3.7 00:05:01 29° SW 00:07:52 72° NW 00:13:22 10° NE
Cosmos 1674 Rocket 3.7 00:06:55 43° SW 00:08:06 60° WNW 00:12:24 10° N
Cosmos 2221 Rocket 4.3 00:06:47 33° WSW 00:08:07 42° WNW 00:12:21 10° N
Cosmos 2298 Rocket 4.0 00:07:41 38° SSW 00:09:46 84° ESE 00:15:06 10° NNE
Cosmos 1674 3.8 00:10:51 29° W 00:11:36 31° WNW 00:15:01 10° N
USA 306 3.0 00:11:52 48° SSE 00:12:18 50° SE 00:16:21 10° ENE
Cosmos 1238 Rocket 3.7 00:10:01 10° NNW 00:12:06 25° WNW 00:12:06 25° WNW
Thor Agena Rocket 4.0 00:07:59 10° NNE 00:13:11 54° E 00:15:34 30° SSE
ATLAS CENTAUR R/B 3.6 00:11:36 10° WNW 00:13:59 16° WSW 00:13:59 16° WSW
USA 307 3.1 00:15:20 45° SSE 00:15:46 47° SE 00:19:48 10° ENE
SL-16 R/B 3.7 00:16:08 17° SE 00:18:57 26° ESE 00:23:32 10° NE
ERBS 3.1 00:22:52 34° ESE 00:22:52 34° ESE 00:25:11 10° ENE
ATLAS 5 CENTAUR R/B 3.1 00:11:52 10° NW 00:23:05 47° WSW 00:24:40 35° SSW
Cosmos 1980 3.7 00:20:38 34° SSW 00:23:10 79° ESE 00:28:50 10° NNE
Cosmos 1378 Rocket 4.2 00:22:19 33° WSW 00:23:44 45° WNW 00:28:01 10° N
CZ-4C R/B 3.4 00:16:54 10° NW 00:23:48 43° WSW 00:27:53 27° S
Cosmos 1455 Rocket 3.5 00:19:27 10° N 00:23:53 60° ENE 00:26:10 27° SSE
Cosmos 2333 Rocket 3.7 00:19:42 12° WSW 00:24:14 30° NW 00:29:14 10° NNE
USA 215 4.0 00:19:19 10° NE 00:25:39 53° NNW 00:31:58 10° W
Cosmos 332 Rocket 3.9 00:28:23 35° S 00:30:15 63° ESE 00:35:00 10° NNE
NOSS 0 Rocket 4.0 00:29:23 28° SW 00:32:50 77° WNW 00:39:07 10° NNE
USA 32 4.1 00:35:15 33° SSW 00:37:38 71° W 00:42:54 10° N
Meteor 1-24 Rocket 4.3 00:34:53 22° SSE 00:38:16 50° E 00:43:30 10° NNE
Meteor 2-10 Rocket 3.6 00:32:37 10° NNW 00:38:19 76° W 00:41:17 28° S
Cosmos 1975 Rocket 3.1 00:39:39 34° S 00:41:31 75° E 00:46:00 10° NNE
Cosmos 839 Rocket 4.4 00:37:57 10° NW 00:44:06 52° WSW 00:49:12 20° S
USA 308 2.8 00:44:46 37° SW 00:46:18 73° SSE 00:50:29 10° ENE
Cosmos 2219 Rocket 3.8 00:42:56 10° WSW 00:47:34 26° NW 00:52:16 10° NNE
MOS 1 Rocket 4.2 00:44:05 11° SE 00:47:57 41° ENE 00:52:01 10° N
Cosmos 1025 Rocket 3.1 00:47:03 32° S 00:48:59 72° E 00:53:18 10° NNE
Cosmos 1455 3.3 00:46:27 10° N 00:50:00 40° ENE 00:52:38 16° SE
Cosmos 1269 Rocket 4.0 00:45:32 10° NNW 00:50:52 88° ENE 00:55:07 16° SSE
GP-B 3.5 00:52:01 10° N 00:56:19 50° W 00:58:06 31° SW
Meteor 2-5 Rocket 3.8 00:55:38 25° S 00:59:08 83° E 01:04:50 10° NNE
CZ-2D R/B 2.3 00:53:46 10° NNE 00:59:10 70° ESE 01:02:28 24° S
Cosmos 1300 3.7 00:57:25 10° NNW 01:00:44 29° W 01:01:27 27° WSW
Lacrosse 5 2.4 00:58:31 28° S 01:00:48 46° SE 01:05:40 10° ENE
USA 267 4.4 01:02:15 21° SW 01:02:51 21° SW 01:07:39 10° WNW
Cosmos 371 Rocket 4.4 01:06:03 19° WSW 01:08:53 36° WNW 01:13:23 10° N
USA 305 2.9 01:07:08 22° WSW 01:09:47 75° NNW 01:13:59 10° ENE
Cosmos 1544 Rocket 3.5 01:05:49 10° N 01:10:16 88° W 01:13:10 21° S
BREEZE-M DEB (TANK) 4.2 00:58:12 10° WSW 01:13:01 87° SSE 01:17:01 10° ENE
Cosmos 2237 Rocket 2.8 01:11:28 20° WSW 01:15:14 50° NW 01:20:48 10° NNE
COSMOS 2428 4.5 01:12:51 10° W 01:17:23 24° NW 01:21:57 10° N
AQUA 4.0 01:13:45 10° NNE 01:18:31 68° ESE 01:21:49 20° S
SL-16 R/B 2.5 01:14:42 14° S 01:20:11 74° WSW 01:26:28 10° NNW
Helios 1A 3.4 01:17:07 10° SSE 01:21:15 62° ENE 01:25:27 10° N
SAR-Lupe-2 3.7 01:18:32 10° NNE 01:22:08 67° ESE 01:24:09 24° S
Lacrosse 5 rocket 2.0 01:21:54 25° S 01:23:36 39° SE 01:27:24 10° ENE
SME Rocket 4.1 01:24:35 23° SW 01:26:09 31° W 01:30:35 10° NNW
Resurs 1-4 Rocket 2.2 01:23:05 10° N 01:28:20 67° WNW 01:31:56 20° SSW
Cosmos 2074 Rocket 4.0 01:22:10 10° NNW 01:28:27 72° W 01:33:59 14° S
Cosmos 1943 Rocket 2.3 01:27:54 10° NW 01:33:29 57° WSW 01:39:00 10° S
Cosmos 2297 3.7 01:27:44 10° NNW 01:33:30 72° WSW 01:39:11 10° SSE
Cosmos 1703 3.9 01:35:52 13° S 01:39:09 52° E 01:43:00 10° NNE
CRYOSAT 2 4.4 01:38:46 16° S 01:42:41 67° W 01:47:34 10° N
Cosmos 2184 Rocket 4.1 01:37:09 10° NNW 01:43:17 58° W 01:48:45 13° SSW
Cosmos 2278 Rocket 3.9 01:41:01 10° WNW 01:43:52 14° W 01:45:23 13° WSW
ADEOS II 2.1 01:39:01 10° NNE 01:44:18 88° WNW 01:48:40 15° SSW
IDEFIX/ARIANE 42P 2.7 01:39:54 10° NNE 01:45:13 81° ESE 01:49:52 14° SSW
Cosmos 1610 Rocket 4.4 01:40:58 10° N 01:47:10 80° W 01:53:16 10° S
USA 306 3.6 01:47:50 10° W 01:51:55 51° NNW 01:56:01 10° ENE
Cosmos 2084 Rocket 3.8 01:49:15 16° WSW 01:52:04 48° NW 01:55:47 10° NE
Cosmos 292 Rocket 3.9 01:48:10 15° SSW 01:52:05 75° ESE 01:56:54 10° NNE
USA 307 3.5 01:51:16 10° W 01:55:23 53° NNW 01:59:31 10° ENE
NPP 4.1 01:51:05 10° N 01:56:16 49° WNW 02:00:36 15° SW
ERBS 3.5 01:54:53 10° W 01:57:41 32° NNW 02:00:31 10° NE
Cosmos 2369 Rocket 2.2 01:53:11 10° NNW 01:58:50 87° WSW 02:04:25 10° SSE
Gblst 52 Del rocket 4.4 01:54:07 10° WNW 01:59:54 72° NNE 02:05:23 10° E
IRS-1D 3.9 01:56:51 10° NNE 02:02:13 70° ESE 02:07:28 10° S
Cosmos 2228 3.0 01:57:51 10° NNW 02:02:14 79° W 02:06:34 10° S
Cosmos 614 Rocket 4.2 01:57:16 10° NNW 02:02:19 52° WSW 02:07:21 10° S
EO 1 Del DPAF 3.1 01:59:02 10° N 02:02:31 64° WNW 02:05:16 15° SSW
SL-16 R/B 2.5 01:58:00 15° SW 02:02:40 59° WNW 02:08:18 10° NNE
Cosmos 2251 Rocket 3.5 01:59:06 10° NNW 02:04:23 80° WSW 02:09:40 10° SSE
Meteor 1-28 Rocket 3.8 02:03:37 14° SSW 02:06:28 37° W 02:09:58 10° NNW
USA 215 4.5 02:01:56 10° ENE 02:08:00 43° N 02:14:05 10° WNW
Cosmos 1656 Rocket 3.6 02:02:46 10° NNW 02:08:13 90° ENE 02:13:39 10° SSE
Cosmos 2058 Rocket 4.5 02:05:52 10° N 02:10:01 40° ENE 02:14:08 10° SE
COSMOS 2455 2.9 02:04:48 13° SSW 02:10:12 89° SE 02:16:17 10° NE
Cosmos 1536 Rocket 4.1 02:08:03 14° SW 02:11:38 45° WNW 02:15:52 10° N
COSMOS 2441 4.4 02:12:38 10° NNE 02:17:33 85° WNW 02:22:23 10° SSW
Cosmos 1408 4.4 02:17:30 10° SSE 02:20:42 29° E 02:23:53 10° NNE
Nadezhda 1 Rocket 4.4 02:15:05 11° SSW 02:21:08 53° WNW 02:27:16 10° N
MSX 3.9 02:16:29 10° N 02:22:14 70° WNW 02:27:58 10° SSW
Cosmos 1455 3.9 02:22:48 10° NW 02:25:08 16° W 02:27:22 10° SW
Cosmos 1603 4.2 02:20:38 10° S 02:26:09 60° ESE 02:31:44 10° NE
USA 308 3.9 02:22:08 10° W 02:26:09 44° NNW 02:30:11 10° ENE
MOS 1 Rocket 4.5 02:23:22 11° SW 02:26:24 21° W 02:29:44 10° NW
Cosmos 1271 Rocket 3.8 02:25:57 10° NW 02:29:10 26° W 02:32:26 10° SSW
Cosmos 1606 Rocket 3.7 02:29:03 10° NNW 02:33:23 56° W 02:37:40 10° S
ALOS 3.2 02:32:05 10° NNE 02:36:38 49° E 02:41:08 10° S
CZ-2D R/B 3.7 02:34:43 10° N 02:38:41 21° WNW 02:42:36 10° WSW
CZ-2C R/B 3.3 02:33:46 10° NNE 02:38:47 51° E 02:43:39 10° S
Helios 1B rocket 2.4 02:39:24 10° NNE 02:43:29 89° NW 02:47:33 10° SSW
Lacrosse 5 2.5 02:38:47 10° WSW 02:43:47 53° NNW 02:48:47 10° NE
Cosmos 2366 rocket 4.0 02:39:28 10° NNW 02:45:38 79° W 02:51:49 10° S
Cosmos 2341 Rocket 4.2 02:39:52 10° NNW 02:46:06 57° W 02:52:20 10° SSW
